Cosmos 1953 - Orbit

View from above orbital plane
View from above orbital plane
View from above satellite
View from above satellite

Ground track
Ground track

The orbit data is extracted from the following two-line orbital elements,

1 19210U 88050A   13169.06775793  .00001384  00000-0  10947-3 0  1316
2 19210 082.5188 004.3816 0015634 180.9908 179.1287 14.99802338358483
Epoch (UTC): 18 June 2013 01:37:34
Eccentricity: 0.0015634
inclination: 82.5188°
perigee height: 556 km
apogee height: 578 km
right ascension of ascending node: 4.3816°
argument of perigee: 180.9908°
revolutions per day: 14.99802338
mean anomaly at epoch: 179.1287°
orbit number at epoch: 35848

The dashed part of the orbit path shows where the satellite is in the earth's shadow,  

Developed and maintained by Chris Peat, Heavens-Above GmbH. Please read the updated FAQ before sending e-mail. Imprint. DLR